Location: Brand
(49.9603°N, 11.9087°E)
Time: 02:55:07
(UTC+00:00)

Daily predictions for brighter satellites

Satellite Brightness Start Highest point End
(mag) Time Altitude Azimuth Time Altitude Azimuth Time Altitude Azimuth
CZ-4C R/B 3.9 03:09:38 36° SSE 03:09:38 36° SSE 03:14:12 10° SSE
Cosmos 2297 Rocket 4.4 03:12:27 16° NNE 03:12:27 16° NNE 03:13:39 10° NNE
Cosmos 2227 Rocket 4.3 03:17:02 18° NNE 03:17:02 18° NNE 03:18:26 10° NNE
USA 234 4.0 03:19:20 10° ENE 03:25:35 45° SE 03:27:07 39° S
Cosmos 1943 3.7 03:33:26 55° ESE 03:33:26 55° ESE 03:37:58 10° SE
ATLAS 5 CENTAUR R/B 3.7 03:47:45 22° NNE 03:47:45 22° NNE 03:49:55 10° NE
Cosmos 1603 4.2 03:57:30 50° S 03:57:30 50° S 04:01:44 10° SSE
Okean 1-7 4.2 04:01:48 37° SSE 04:01:48 37° SSE 04:04:32 10° SSE
SKYMED 2 4.2 03:56:04 10° SSE 03:59:51 54° E 03:59:51 54° E
Cosmos 2034 Rocket 3.9 04:01:13 73° W 04:01:13 73° W 04:07:38 10° N
Cosmos 2195 Rocket 4.5 04:03:01 11° N 04:09:17 85° E 04:15:37 10° S
Cosmos 1340 4.4 04:07:45 10° SSE 04:11:07 32° E 04:14:31 10° NNE
Cosmos 1092 Rocket 3.8 04:16:20 32° NNW 04:19:22 71° W 04:25:26 10° S
ALOS 3.3 04:16:04 10° NNE 04:20:36 46° E 04:25:06 10° S
CZ-2C R/B 4.4 04:21:49 10° N 04:22:28 14° N 04:22:28 14° N
Cosmos 2263 Rocket 2.0 04:27:11 17° SSW 04:31:31 89° WNW 04:37:07 10° NNE
ATLAS CENTAUR R/B 3.1 04:33:14 22° N 04:34:35 26° NNE 04:38:04 10° E
SJ-12 4.1 04:30:29 10° NNE 04:34:38 73° ESE 04:38:43 10° S
Meteor 1-20 Rocket 4.2 04:30:10 10° SSW 04:36:01 77° WNW 04:41:53 10° N
USA 116 4.2 04:31:33 10° SSE 04:36:09 83° ENE 04:40:15 16° NNW
Cosmos 1602 3.7 04:33:11 10° S 04:37:00 82° E 04:40:52 10° NNE
Cosmos 2056 Rocket 4.3 04:38:33 33° NNW 04:38:33 33° NNW 04:42:05 10° NNE
CZ-4B DEB 4.5 04:32:45 10° NNE 04:38:18 71° ESE 04:43:50 10° S
Geosat 4.0 04:34:20 10° SSE 04:39:17 60° WSW 04:40:26 47° WNW
GEOS 3 Rocket 3.8 04:35:28 10° SSE 04:40:22 47° SW 04:41:06 44° W
Okean 1 3.6 04:41:18 50° SW 04:41:18 50° SW 04:44:27 10° S
Okean 3 3.7 04:40:43 19° N 04:43:42 67° ENE 04:47:53 10° SSE
Timation 1 Rocket 4.2 04:39:39 10° SSW 04:45:38 87° WNW 04:51:39 10° NNE
BREEZE-M DEB (TANK) 3.4 04:42:06 25° WSW 04:46:27 73° SSE 04:49:37 10° E
COSMO-SKYMED 1 2.7 04:44:11 10° S 04:48:22 48° W 04:48:23 48° W
FENGYUN 3A 3.7 04:44:03 10° NNE 04:49:29 79° ESE 04:54:52 10° SSW
Cosmos 1484 Rocket 3.3 04:47:58 10° N 04:56:51 - SSW 04:50:49 40° NNW
Cosmos 2221 Rocket 3.4 04:50:35 23° NNW 04:53:20 77° W 04:57:45 10° S
Cosmos 2297 Rocket 3.9 04:54:15 15° NNW 04:54:15 15° NNW 04:56:53 10° N
Cosmos 1420 Rocket 4.0 04:50:30 22° SW 04:53:40 54° WNW 04:58:47 10° NNE
CZ-4C R/B 4.4 04:54:53 18° WSW 04:54:53 18° WSW 04:58:53 10° SSW
Cosmos 2227 4.4 04:52:54 27° WSW 04:55:50 50° NW 05:01:29 10° NNE
ADEOS Rocket 3.9 04:50:44 10° SE 04:57:15 52° ENE 05:03:10 10° N
Cosmos 2227 Rocket 3.9 04:58:52 16° NNW 04:58:52 16° NNW 05:01:41 10° N
Cosmos 2266 Rocket 4.4 04:54:45 10° N 05:00:58 63° ENE 05:07:01 10° SSE
Meteor 1-18 Rocket 4.4 04:58:21 21° NNW 05:01:41 46° W 05:06:58 10° SSW
METEOR-M 4.0 04:57:43 10° NNE 05:03:06 80° WNW 05:08:27 10° SSW
Cosmos 1844 Rocket 4.0 04:58:44 10° S 05:03:55 41° ESE 05:09:07 10° NE
CZ-4B R/B 3.4 04:58:46 10° NNE 05:04:24 77° ESE 05:10:03 10° SSW
Cosmos 1733 Rocket 3.6 05:00:23 10° S 05:04:38 59° E 05:08:54 10° NNE
Okean O Rocket 1.6 05:00:34 10° NNE 05:04:59 85° ESE 05:09:24 10° SSW
PSLV R/B 4.2 05:02:44 10° N 05:06:37 41° WNW 05:10:30 10° SW
Cosmos 1741 Rocket 4.3 05:04:53 29° NW 05:06:58 43° WSW 05:11:52 10° S
USA 234 3.2 05:02:21 10° ENE 05:08:53 76° NNW 05:14:29 15° WSW
Cosmos 1536 4.4 05:07:15 10° SSE 05:11:02 38° E 05:14:50 10° NNE
MOS 1-B 4.3 05:07:45 10° N 05:13:28 61° WNW 05:19:07 10° SSW
Cosmos 1943 4.2 05:15:19 23° W 05:15:57 24° WSW 05:20:18 10° SSW
Cosmos 1869 Rocket 4.0 05:12:09 10° SW 05:16:10 37° WNW 05:20:15 10° N
Cosmos 2026 Rocket 4.4 05:11:04 10° NNW 05:16:42 38° W 05:22:24 10° SSW
Helios 1A Rocket 2.7 05:16:31 10° N 05:20:33 73° WNW 05:24:33 10° SSW
Cosmos 1452 Rocket 3.9 05:18:39 10° SW 05:23:38 41° WNW 05:28:40 10° NNE
H-2A R/B 3.6 05:21:33 10° NNE 05:25:14 52° E 05:28:55 10° S
Meteor 1-11 Rocket 4.1 05:21:20 10° S 05:27:04 72° E 05:32:58 10° NNE
Cosmos 2082 Rocket 4.0 05:23:30 10° NNW 05:28:05 24° NE 05:32:38 10° E
CZ-2C R/B 4.4 05:23:44 10° SSE 05:28:23 59° ENE 05:33:06 10° N
PAYLOAD B 4.3 05:25:35 10° N 05:30:58 54° WNW 05:36:20 10° SW
Cosmos 2279 Rocket 4.0 05:25:10 10° SSW 05:31:15 56° WNW 05:37:24 10° N
ATLAS 5 CENTAUR R/B 3.5 05:29:18 15° NW 05:31:23 19° N 05:35:13 10° NE
Cosmos 1674 Rocket 3.4 05:27:09 10° NNW 05:31:30 77° W 05:35:49 10° S
NOAA 6 4.0 05:29:54 10° N 05:34:56 60° WNW 05:39:59 10° SSW
Cosmos 332 Rocket 3.8 05:30:10 10° SSW 05:35:05 87° ESE 05:40:02 10° NNE
Cosmos 1346 Rocket 3.4 05:32:17 10° SW 05:35:49 33° WNW 05:39:23 10° N
Cosmos 1340 3.8 05:43:46 10° WSW 05:46:48 23° WNW 05:49:52 10° NNW
SMAP 3.1 05:42:46 10° NNE 05:47:29 84° ESE 05:52:08 10° SSW
Cosmos 968 Rocket 4.1 05:42:27 10° NNW 05:47:33 56° ENE 05:52:35 10° SE
Cosmos 1378 Rocket 3.5 05:45:20 10° NNW 05:49:44 69° W 05:54:09 10° S
SL-23 DEB 3.4 05:46:47 10° WSW 05:49:54 81° SSE 05:53:37 10° ENE
AQUARIUS 4.2 05:46:31 10° NNE 05:51:04 85° ESE 05:55:33 10° SSW
Cosmos 405 3.6 05:48:47 10° NNW 05:52:01 36° W 05:55:17 10° SSW
Meteor 1-5 Rocket 4.3 05:46:23 10° SSW 05:52:16 65° WNW 05:58:04 10° N
Meteor 2-4 Rocket 4.2 05:48:38 10° NNW 05:53:36 35° W 05:58:26 10° SSW
Cosmos 1500 3.4 05:50:06 10° SSW 05:53:48 45° WNW 05:57:30 10° N
Cosmos 44 3.2 05:51:06 10° WSW 05:55:42 54° NW 06:00:07 10° NNE
Cosmos 371 Rocket 3.4 05:51:22 10° SW 05:56:06 53° WNW 06:00:54 10° NNE
ALOS 3.2 05:53:57 10° N 05:57:48 26° WNW 06:01:38 10° WSW
Cosmos 1655 Rocket 4.5 05:52:15 10° NNW 05:57:56 38° W 06:03:35 10° SSW
NOSS 3-2 (A) 3.8 05:56:25 10° SSW 06:02:11 70° SE 06:08:49 10° NE
Cosmos 1066 Rocket 4.2 05:59:39 10° NNW 06:05:16 81° W 06:10:42 10° S
Cosmos 1331 Rocket 4.2 06:03:58 10° SW 06:08:58 48° WNW 06:14:01 10° NNE
Cosmos 2278 Rocket 4.2 06:04:32 10° S 06:09:35 34° ESE 06:14:40 10° NE
USA 238 DEB 3.8 06:06:03 10° SW 06:12:45 87° SE 06:19:46 10° NE
USA 238 3.8 06:06:10 10° SW 06:12:52 87° SE 06:19:52 10° NE
ATLAS CENTAUR R/B 1.5 06:09:40 10° NW 06:13:53 62° SW 06:17:45 10° SSE
Cosmos 2263 Rocket 3.3 06:11:58 10° W 06:16:15 22° NW 06:20:33 10° N
YAOGAN 6 2.9 06:12:43 10° NNE 06:16:26 73° ESE 06:20:08 10° S
Cosmos 1441 Rocket 3.7 06:13:12 10° S 06:17:09 68° E 06:21:05 10° NNE
Cosmos 1908 Rocket 3.6 06:15:49 10° SSW 06:20:15 60° WNW 06:24:41 10° N
CZ-4 R/B 2.2 06:17:50 10° NNE 06:21:41 55° E 06:25:33 10° S
CENTAUR R/B 3.6 06:16:28 10° SSW 06:22:16 52° ESE 06:29:04 10° NE
